Presure
164 178 167 190 180 180 194 196 190 195 194 119 183 197 204 143 198 226 109 163 208 225 234 184 244 321 314 259 225 322 329 347 331 345 235 230 207 188 183 143 183 188 188
178 171 185 174 191 188 177 204 189 196 157 193 170 200 205 208 146 216 212 152 233 251 216 216 217 330 282 349 325 295 291 349 347 346 257 224 208 198 189 184 160 183 178
170 181 168 190 181 197 192 183 191 190 194 181 202 195 196 162 174 143 177 224 253 226 176 241 249 306 284 345 351 287 298 353 356 351 251 198 208 193 173 189 184 174 180
171 174 172 173 191 190 195 199 198 197 187 203 194 207 190 117 119 125 129 222 225 255 243 231 218 312 347 352 194 249 375 335 361 355 252 221 199 194 173 182 187 181 164
182 179 180 192 188 197 166 198 185 197 198 183 208 183 122 197 116 152 119 239 233 240 231 243 275 143 342 353 306 132 462 317 360 359 293 231 222 183 196 140 173 178 176
169 172 188 184 197 198 195 189 202 189 200 204 196 196 124 124 154 167 155 216 226 238 223 207 262 317 205 303 364 392 451 313 352 363 275 333 203 210 198 181 185 179 181
190 190 191 197 199 176 192 190 183 199 180 133 201 152 174 114 224 206 214 219 227 126 275 238 245 248 337 352 360 399 439 311 339 355 333 382 215 214 186 180 188 179 171
163 192 197 190 195 195 197 191 114 159 179 198 210 204 208 188 150 190 234 229 231 142 243 231 234 280 333 347 355 395 441 450 333 345 344 379 224 205 217 184 187 182 179
167 178 190 174 198 173 183 185 181 202 194 193 187 210 226 196 224 224 225 239 228 139 243 235 315 130 132 313 359 365 313 358 349 337 334 376 356 208 215 198 196 181 182
175 185 183 197 186 181 194 182 193 197 198 193 201 210 198 237 227 201 227 227 225 268 233 228 311 190 134 336 359 348 304 300 334 328 327 382 356 226 209 211 192 183 182
188 180 189 199 178 192 189 200 188 200 203 197 203 210 209 227 235 213 232 234 204 227 228 242 315 317 261 337 351 344 282 332 322 324 313 385 218 235 222 212 195 191 184
187 188 172 178 201 203 191 184 205 194 198 201 212 220 219 222 213 239 224 225 237 208 244 307 316 316 326 138 347 367 373 337 427 333 310 382 431 241 219 201 208 195 188
190 184 194 188 184 188 183 202 197 199 192 217 219 220 217 225 227 229 216 235 267 275 304 315 319 319 329 135 348 361 367 320 425 326 314 372 384 240 215 202 206 174 191
189 193 192 191 206 196 200 206 206 203 215 224 213 232 226 228 257 257 221 270 236 297 114 320 324 327 331 204 352 244 380 129 416 324 337 355 388 248 226 205 197 202 189
197 198 193 197 203 191 198 197 216 205 217 223 228 216 239 224 234 237 240 229 299 326 327 325 329 292 337 348 359 366 380 381 154 307 272 343 377 249 227 207 195 189 195
189 201 200 182 193 202 202 223 210 221 210 233 221 234 230 229 276 279 308 324 228 343 341 339 341 343 349 356 364 342 131 130 400 388 338 314 379 251 235 213 211 192 198
130 179 121 190 224 212 199 214 212 232 225 239 219 227 255 247 318 335 340 359 228 317 373 374 377 374 370 374 383 377 130 132 388 395 306 299 363 266 237 218 207 207 197
186 194 217 212 199 214 210 231 218 225 234 250 276 282 320 358 359 372 380 388 397 282 412 420 425 436 432 423 408 400 399 364 168 393 344 316 317 355 239 230 220 190 202
218 199 209 204 213 231 230 252 232 232 238 283 290 363 380 384 392 401 359 418 405 402 386 368 370 381 397 425 153 416 408 277 377 385 381 308 279 358 285 237 215 202 198
200 242 237 240 221 235 236 244 249 282 287 368 252 391 399 407 427 416 389 363 364 312 348 504 509 395 380 235 441 427 406 362 374 376 371 304 333 302 349 268 228 208 201
232 236 223 227 260 237 276 275 299 341 388 302 402 326 435 320 297 379 414 301 427 482 480 488 497 507 526 224 433 414 395 228 371 371 365 341 323 280 327 287 252 228 212
216 214 241 274 275 288 350 386 389 393 400 359 349 403 331 470 407 473 470 475 482 484 476 479 495 498 515 270 360 429 382 367 369 367 363 358 305 345 302 349 286 269 223
276 283 292 358 372 376 382 394 346 416 329 433 349 472 433 465 461 471 484 522 510 505 490 479 486 494 125 397 426 422 375 378 361 363 362 350 335 343 274 308 326 294 238
365 368 372 379 381 389 350 417 347 365 461 364 478 462 441 394 279 265 471 488 487 484 173 482 496 453 210 401 328 413 370 385 358 357 360 337 338 323 317 288 327 337 286
376 381 389 398 412 429 411 290 420 378 470 456 446 441 447 273 450 444 456 473 479 483 489 494 506 514 366 408 415 269 372 388 356 352 354 358 343 334 318 265 290 321 349
399 333 398 443 445 411 374 435 462 452 438 433 436 436 345 445 443 449 450 459 464 468 480 485 314 326 319 404 399 393 301 389 356 346 353 349 356 331 331 307 263 268 321
Wind_Speed
40 48 38 55 49 47 60 60 46 51 49 38 43 60 63 41 39 78 48 51 66 40 61 64 76 57 50 44 56 48 58 59 65 71 115 125 121 115 108 73 104 104 93
51 47 55 45 61 60 47 67 49 55 57 58 43 66 69 74 34 66 71 32 74 83 38 53 58 66 59 60 47 53 55 63 65 69 116 111 122 121 112 112 81 106 100
51 57 45 64 57 69 61 51 56 54 57 46 73 62 70 48 58 36 54 73 95 47 51 91 85 64 60 58 56 48 50 60 66 65 117 102 121 114 104 117 115 101 103
54 54 52 54 69 68 67 70 69 68 53 76 63 82 67 32 34 37 37 83 61 101 95 73 57 69 68 61 45 43 41 51 63 64 116 117 108 115 101 111 116 111 89
66 64 67 74 73 76 52 75 58 78 81 53 88 52 37 83 35 49 41 106 101 101 76 90 76 31 67 62 48 52 37 45 56 61 94 124 127 111 128 68 104 115 110
58 57 76 66 80 81 74 72 85 70 88 93 81 77 41 44 58 65 52 76 90 105 55 56 75 69 46 55 54 43 36 43 52 59 93 78 120 137 128 113 122 116 119
74 73 78 80 82 56 75 76 66 89 61 39 94 55 62 40 93 70 88 98 108 46 81 80 69 57 65 61 54 45 37 42 51 58 69 53 128 132 116 117 129 122 107
61 83 83 82 85 89 89 87 42 57 84 93 105 101 100 86 57 62 115 115 110 47 100 68 72 60 65 60 53 48 39 35 51 57 62 53 134 125 138 124 130 129 122
71 77 87 68 90 64 82 90 72 105 92 85 73 113 114 74 114 91 120 111 99 49 104 79 77 54 52 56 56 44 36 37 46 59 64 57 106 125 136 140 140 129 129
80 91 82 97 85 88 101 81 102 105 102 94 103 113 89 115 119 88 121 118 94 100 87 66 78 53 54 59 57 41 36 40 46 60 63 57 107 140 138 144 139 134 132
91 91 99 100 79 103 97 108 95 107 113 98 101 118 114 111 121 105 120 122 92 94 84 96 81 73 59 61 56 42 42 39 48 61 61 55 50 143 143 142 141 143 132
92 94 77 88 108 109 100 92 115 101 107 113 123 127 118 129 108 130 107 108 109 90 106 91 84 75 70 54 56 53 41 41 39 60 60 58 52 144 139 139 147 144 138
95 90 98 98 92 98 90 116 111 111 97 131 132 128 128 129 114 124 82 121 116 111 101 90 85 79 73 53 58 54 43 42 42 61 68 63 81 144 142 139 143 116 142
104 106 106 106 113 112 115 121 123 124 130 133 121 124 131 133 119 121 96 123 113 111 31 90 85 81 76 54 61 45 47 44 45 64 73 73 74 147 146 143 139 143 136
109 111 112 115 119 100 116 116 134 119 135 136 140 112 142 112 136 134 134 111 116 101 92 89 86 73 79 74 66 54 49 42 44 67 77 75 83 147 148 144 139 135 146
111 118 115 89 113 122 126 133 136 135 124 143 133 143 138 130 132 130 129 115 72 96 91 89 87 85 81 76 67 52 39 40 47 56 64 80 81 146 152 148 149 139 147
64 92 50 114 127 134 121 139 140 137 136 135 132 140 136 139 129 115 110 102 61 85 92 88 86 83 83 80 71 56 37 38 49 60 78 85 78 146 153 148 142 154 144
111 121 130 135 119 136 136 134 136 142 139 136 135 137 127 111 108 104 102 98 95 68 87 81 77 71 68 69 67 58 50 54 36 62 77 87 93 107 152 156 151 136 152
124 125 140 136 146 139 140 129 142 140 138 138 139 112 106 104 103 101 86 94 85 79 73 69 67 63 59 57 39 57 52 53 57 63 71 87 100 82 151 156 153 149 153
125 126 131 128 143 138 142 136 131 136 136 105 102 104 104 103 99 93 86 79 75 71 70 55 52 58 57 43 50 53 55 61 60 64 73 90 89 98 101 152 160 152 153
139 140 144 145 136 143 141 134 137 124 104 104 104 97 100 75 73 85 71 72 66 59 56 52 48 45 44 37 50 51 61 43 63 67 72 86 92 105 93 155 157 158 158
130 138 136 140 143 148 119 103 103 103 103 97 95 91 90 68 69 66 65 62 58 54 50 48 43 41 40 41 45 53 65 65 65 67 73 79 92 88 100 88 159 159 159
146 148 149 112 101 102 103 103 98 102 92 89 87 65 56 61 62 60 57 49 46 44 42 43 39 36 28 49 50 54 66 65 66 68 71 79 87 87 106 94 116 163 162
106 104 102 100 99 101 97 102 91 87 73 80 54 54 55 48 29 30 50 45 40 38 29 36 34 31 28 46 41 54 65 65 67 69 71 80 85 90 94 100 88 120 157
101 100 100 100 100 98 88 60 77 75 57 52 51 52 48 34 44 44 42 39 34 31 29 26 23 21 28 41 47 37 62 64 67 69 71 73 82 84 90 107 100 98 84
98 98 97 89 83 81 78 65 58 52 50 49 46 43 35 43 40 40 35 34 28 24 21 16 19 24 31 37 45 52 47 61 65 67 69 70 75 83 84 95 107 101 99
Wind_Direction
313 316 313 319 325 321 324 326 320 329 329 285 308 334 335 276 290 340 266 292 312 328 341 290 326 315 305 281 258 260 250 241 227 223 208 206 207 216 225 236 228 227 228
314 317 319 325 321 323 311 321 323 329 286 333 309 334 333 332 296 335 326 283 325 318 294 302 306 315 297 309 276 271 252 242 230 224 205 208 208 209 219 223 240 228 232
315 316 321 317 325 319 320 316 319 327 323 316 329 332 310 313 302 283 314 336 327 330 305 329 325 313 299 309 300 276 265 244 233 224 204 213 209 212 228 219 223 234 230
314 319 318 326 317 319 316 318 319 325 324 326 327 323 320 262 269 271 269 320 330 324 331 326 318 315 317 314 267 273 273 247 236 226 205 205 213 212 220 224 220 226 239
312 317 320 313 321 314 314 318 324 322 324 313 324 303 271 320 270 302 273 327 331 333 332 327 324 276 317 316 296 256 280 245 233 225 211 203 205 218 209 239 227 226 230
319 318 315 316 312 313 316 325 319 325 322 321 325 323 267 272 301 305 298 322 329 326 320 290 324 316 294 310 313 305 282 243 230 221 208 212 211 204 208 220 219 224 226
308 307 311 309 311 317 312 322 325 318 313 290 320 304 314 263 319 320 325 325 323 260 321 325 320 299 318 318 314 309 286 241 230 219 219 223 206 205 213 220 218 225 233
316 308 308 315 312 314 314 319 294 312 310 322 316 321 320 317 300 308 317 322 317 279 322 323 322 307 318 316 312 312 288 264 227 220 222 222 205 207 204 220 217 223 227
320 316 309 325 308 319 321 311 321 312 322 322 315 320 312 316 315 315 318 311 319 274 317 324 313 253 253 312 313 307 254 248 228 219 220 219 197 208 204 212 213 221 225
314 311 314 307 314 321 313 321 317 317 318 321 321 317 321 307 313 310 316 316 314 312 318 312 310 271 257 311 312 296 248 238 228 218 220 215 197 203 206 207 213 220 224
306 313 308 303 319 312 316 308 319 313 315 320 308 315 316 309 308 316 312 312 306 313 312 315 306 306 291 307 307 290 240 260 227 218 215 210 228 202 203 206 213 216 222
303 303 316 316 300 300 313 316 307 316 316 315 311 309 310 311 315 307 314 314 310 307 310 306 303 302 302 255 302 302 286 241 242 218 212 207 208 201 202 210 210 214 219
302 306 302 308 316 314 316 307 314 312 312 306 307 307 311 311 308 310 308 310 307 308 306 303 299 298 298 253 297 296 281 244 244 217 211 208 200 201 204 210 210 224 218
304 302 304 306 299 308 308 304 307 312 308 305 312 305 308 309 303 304 308 306 305 305 242 298 296 294 293 263 291 269 281 250 242 215 210 209 203 200 203 208 213 212 221
301 301 306 306 304 311 310 312 304 310 309 305 306 310 303 304 306 303 303 303 303 300 296 294 291 284 287 285 284 281 272 251 251 212 209 207 204 201 205 209 214 218 218
309 301 304 311 311 307 310 300 308 304 312 301 307 303 306 305 303 303 302 301 287 293 289 287 284 282 280 278 276 268 240 245 231 220 214 205 207 202 204 209 209 217 217
300 310 303 312 297 303 310 306 306 297 301 300 307 303 297 298 301 298 296 292 283 285 284 281 278 274 273 271 269 260 235 246 224 214 206 201 204 201 205 211 213 212 218
311 308 298 302 308 303 306 296 303 299 298 301 304 304 301 297 296 293 292 291 290 282 287 285 282 278 273 267 260 251 239 225 245 211 209 204 203 203 205 209 208 217 216
292 307 302 306 301 294 295 295 295 296 296 303 303 299 297 296 295 295 294 293 291 289 285 280 276 271 267 263 239 243 228 227 215 209 209 204 200 205 206 207 210 213 217
306 291 292 292 297 298 294 294 297 301 302 298 297 298 298 298 297 296 295 293 290 287 285 286 282 265 256 236 245 233 218 213 210 209 206 205 207 204 205 207 210 211 213
292 295 298 297 298 295 299 300 302 300 299 298 299 300 299 294 297 298 295 290 292 291 288 285 280 274 266 238 237 225 210 226 207 207 206 205 207 203 205 206 209 210 211
299 300 300 299 298 300 299 298 298 298 299 301 301 301 301 302 298 299 297 295 291 287 285 282 278 271 265 234 230 219 207 206 205 205 207 206 206 207 206 206 209 209 212
300 298 298 298 297 297 296 296 300 299 301 302 302 305 303 303 302 302 305 301 292 286 278 278 275 267 231 228 221 214 205 203 203 203 205 207 206 208 208 208 209 210 210
298 298 297 297 296 296 299 299 300 301 306 302 308 306 304 303 294 306 311 308 298 290 261 280 277 266 241 220 221 210 204 201 202 204 204 206 206 205 207 206 208 212 211
297 296 297 297 298 299 302 301 304 303 308 308 307 306 308 302 308 309 311 310 302 295 289 284 276 264 239 212 207 220 202 200 202 205 204 205 208 207 205 209 209 209 212
297 302 301 301 302 303 304 306 307 308 308 309 310 312 308 313 308 308 303 304 304 303 300 289 246 227 221 206 203 200 207 201 202 206 206 206 208 208 209 207 212 212 213